Back to catalog

STARLINK-36505

AliveCommunicationsVLEO
NORAD 67463·PAYLOAD·🇺🇸 United States

Launched Jan 14, 2026 from Cape Canaveral Space Force Station

Loading…

Next Passes (next 24 hours)

TLE

FreshSource: CelesTrak SupGP

Epoch: Sep 14, 2026, 15:45 UTC

1 67463C 26008U   26257.65673611 -.00012654  00000+0 -45842-3 0  2571
2 67463  42.9996 217.9340 0001225 267.1953  83.1940 15.27578477    15

Track STARLINK-36505 in real time with AllMySat

Download on the App Store